Pacific - Georgia Basin: Past 24 Hour Conditions

 

Vancouver Int'l Airport

06:00 PM PDT 25 October 2014
This table is a summary of hourly weather conditions for the past 24 hours.
Date / Time
(PDT)
Wind(knots) Conditions Visibility(km) Pressure(kPa) Air tempC) Relative humidity(%) Dew pointC)
25 October 2014
18:00 W 4 N/A 13 99.1 12 96 11
17:00 E 4 Light Rainshower 16 99.2 12 96 11
16:00 ENE 5 Light Rainshower 19 99.3 12 94 11
15:00 N 2 Light Rainshower 19 99.4 12 92 11
14:00 N 1 Light Rainshower 16 99.5 12 91 11
13:00 ENE 5 Light Rainshower 19 99.6 13 87 11
12:00 E 12 Mostly Cloudy 24 99.7 12 81 9
11:00 ENE 7 Mostly Cloudy 24 99.8 10 91 9
10:00 NE 8 Light Rain 16 99.9 9 93 8
9:00 WNW 10 Light Rain 24 100.0 9 93 8
8:00 N 1 Light Rain 24 99.9 10 84 8
7:00 ESE 6 Mostly Cloudy 24 99.9 9 89 8
6:00 SSW 2 Mostly Cloudy 24 100.1 9 92 8
5:00 S 2 Light Rain 16 100.2 9 93 8
4:00 N 2 Light Rain 16 100.4 9 94 8
3:00 NNE 6 Light Rain 16 100.6 9 90 8
2:00 N 4 Light Rain 24 100.8 10 87 8
1:00 NNE 5 Light Rain 24 100.9 10 86 8
0:00 ESE 5 Mostly Cloudy 32 101.0 10 83 8
24 October 2014
23:00 E 3 Mostly Cloudy 48 101.1 10 81 7
22:00 N 1 Mostly Cloudy 48 101.2 11 82 8
21:00 E 5 Mostly Cloudy 48 101.2 11 76 7
20:00 E 3 Mostly Cloudy 48 101.3 11 77 7
19:00 NNE 2 Mostly Cloudy 48 101.3 10 82 7
18:00 NW 3 Mostly Cloudy 48 101.4 11 81 8
 
Map of Pacific - Georgia Basin marine weather areas Tsawwassen Ferry Terminal Sentry Shoal - 46131 Halibut Bank - 46146 La Perouse Bank - 46206 Discovery Island Esquimalt Harbour Kelp Reefs Malahat Race Rocks Lightstation Saturna Island Sheringham Point University of Victoria Victoria Gonzales Victoria Int'l Airport Ballenas Islands Campbell River Airport Comox Airport Entrance Island Fanny Island Nanaimo Airport Sisters Islets Estevan Point Tofino Airport Grief Point Powell River Airport Sechelt Point Atkinson Sand Heads Lightstation Vancouver Harbour Vancouver Int'l Airport West Vancouver Port Alberni Howe Sound - Pam Rocks Squamish Airport